Content
SEND FEEDBACK

Daily
Averages
Monthly
Summary
Croatia

SIBENIK, CROATIA


Home > Europe > Croatia
Elevation: 246 feet     Latitude: 43 44N     Longitude: 015 55E

WEATHER
 
SELECT A DAY
Number of Records: 287,916;   Date Range: 1/10/97 - 8/10/14
 
SHARE

PRINT THIS DATA

[ ← Previous Day ]
WEATHER ALMANAC - JANUARY 3, 2013
[ Next Day → ]
[ °C ]   °F
Weather ElementAverageHighLow
Temperature49.1 °F59 °F (12:30 pm) (8:00 am)
Dewpoint40.5 °F44.6 °F (10:30 am) (7:00 pm)
Humidity71.2 %87 % (12:30 am)42 % (1:00 pm)
Barometer29.90 in30.53 in (10:00 am) (7:00 pm)
Wind Speed4.2 mph11.5 mph (10:30 pm)
Wind Gust24.2 mph (8:30 pm)
Weather ElementAverage
Visibility17.1 mi
Wind DirectionSSE (152.8 °)

Weather ElementTotal
Precipitation---
Heating Degree Days35.5 (Base 65)
Averaged from 54 records on January 3, 2013
WEATHER CONDITIONS BREAKOUT
WIND DIRECTION BREAKOUT
WEATHER BY HOUR - JANUARY 3, 2013
[ °C ]   °F
Local TimeTemperatureDewpointHumidityBarometerVisibilityWind DirectionWind SpeedGust SpeedPrecipitationEventsConditions
12:30 AM46.4 °F42.8 °F87 %30.36 inNW (320°)4.6 mphClear
1:00 AM47.0 °F43.0 °F81 %30.39 in9.0 miENE (70°)2.2 mphMostly Cloudy
1:00 AM48.2 °F42.8 °F82 %30.39 inVariable2.3 mphClear
1:30 AM46.4 °F42.8 °F87 %30.39 inVariable2.3 mphClear
2:00 AM46.4 °F42.8 °F87 %30.39 inVariable1.2 mphClear
2:30 AM44.6 °F41.0 °F87 %30.39 inNNW (340°)4.6 mphClear
3:00 AM44.6 °F41.0 °F87 %30.42 inVariable2.3 mphClear
3:30 AM46.4 °F41.0 °F81 %30.42 inVariable2.3 mphClear
4:00 AM45.0 °F40.0 °F75 %30.44 in9.0 miCalmScattered Clouds
4:00 AM44.6 °F39.2 °F81 %30.42 inVariable1.2 mphClear
4:30 AM44.6 °F39.2 °F81 %30.42 inVariable2.3 mphClear
5:00 AM44.6 °F39.2 °F81 %30.42 inVariable2.3 mphClear
5:30 AM44.6 °F39.2 °F81 %30.45 inVariable2.3 mphClear
6:00 AM44.6 °F39.2 °F81 %30.45 inNW (320°)4.6 mphClear
6:30 AM44.6 °F39.2 °F81 %30.45 inNW (320°)4.6 mphClear
7:00 AM46.0 °F39.0 °F70 %30.48 in12.0 miNNW (330°)4.5 mphMostly Cloudy
7:00 AM46.4 °F39.2 °F76 %30.48 inNNW (330°)4.6 mphClear
7:30 AM46.4 °F39.2 °F76 %30.48 inNNW (340°)6.9 mphClear
8:00 AM0.0 °F0.0 °FNorth
8:30 AM48.2 °F41.0 °F76 %30.51 inVariable2.3 mphClear
9:00 AM48.2 °F41.0 °F76 %30.51 inVariable2.3 mphClear
9:30 AM50.0 °F42.8 °F76 %30.51 inVariable1.2 mphClear
10:00 AM49.0 °F43.0 °F74 %30.53 in19.0 miNE (50°)2.2 mphMostly Cloudy
10:00 AM50.0 °F42.8 °F76 %30.51 inVariable2.3 mphClear
10:30 AM50.0 °F44.6 °F82 %30.51 inVariable2.3 mphClear
11:00 AM51.8 °F42.8 °F71 %30.51 inVariable2.3 mphClear
12:00 PM57.2 °F42.8 °F59 %30.51 inVariable1.2 mphClear
12:30 PM59.0 °F41.0 °F51 %30.48 inVariable1.2 mphClear
1:00 PM58.0 °F41.0 °F42 %30.50 in25.0 miESE (120°)2.2 mphClear
1:00 PM57.2 °F41.0 °F55 %30.48 inVariable3.5 mphClear
1:30 PM59.0 °F41.0 °F51 %30.48 inVariable2.3 mphClear
2:00 PM57.2 °F39.2 °F51 %30.48 inVariable2.3 mphClear
2:30 PM59.0 °F42.8 °F55 %30.48 inWSW (250°)6.9 mphClear
3:00 PM57.2 °F42.8 °F59 %30.48 inWSW (240°)5.8 mphClear
3:30 PM55.4 °F42.8 °F63 %30.48 inWSW (240°)5.8 mphClear
4:00 PM55.0 °F42.0 °F51 %30.49 in25.0 miWSW (240°)4.5 mphClear
4:00 PM55.4 °F42.8 °F63 %30.48 inWSW (240°)4.6 mphClear
4:30 PM53.6 °F41.0 °F62 %30.48 inWest (280°)5.8 mphClear
5:00 PM53.6 °F41.0 °F62 %30.48 inWSW (240°)4.6 mphClear
5:30 PM51.8 °F41.0 °F67 %30.48 inWNW (300°)9.2 mphClear
6:00 PM50.0 °F41.0 °F71 %30.48 inVariable3.5 mphClear
6:30 PM51.8 °F41.0 °F67 %30.48 inWNW (300°)9.2 mphClear
7:00 PM51.0 °F41.0 °F58 %30.51 in19.0 miNW (310°)8.9 mph
7:00 PM50.0 °F41.0 °F71 %30.48 inNW (310°)8.1 mphClear
7:30 PM50.0 °F39.2 °F66 %30.48 inNW (310°)5.8 mphClear
8:00 PM50.0 °F41.0 °F71 %30.48 inWNW (300°)4.6 mphClear
8:30 PM50.0 °F41.0 °F71 %30.48 inWest (280°)6.9 mph24.2 mphClear
9:00 PM48.2 °F41.0 °F76 %30.48 inWest (280°)8.1 mphClear
9:30 PM48.2 °F41.0 °F76 %30.48 inWNW (300°)5.8 mphClear
10:00 PM49.0 °F41.0 °F64 %30.50 in19.0 miWNW (300°)6.7 mph
10:00 PM48.2 °F41.0 °F76 %30.48 inWNW (300°)6.9 mphClear
10:30 PM50.0 °F41.0 °F71 %30.48 inWest (260°)11.5 mphClear
11:00 PM50.0 °F42.8 °F76 %30.45 inWest (280°)5.8 mphClear
11:30 PM50.0 °F42.8 °F76 %30.48 inVariable1.2 mphClear
Hourly data recorded from LDSP, located miles away from Sibenik, Croatia







STORIES FROM OUR PARTNERS